Truth Or Consequences, NM

2:44 AM MDT on October 17, 2017 (GMT -0600)
Truth Or Consequences Municipal

Weather History for KTCS - January, 2014

Change the Weather History Date:

Thursday, January 2, 2014

  Actual Average Record
Temperature  
Mean Temperature 40 °F -  
Max Temperature 53 °F 52 °F 66 °F (1997)
Min Temperature 27 °F 27 °F 10 °F (2011)
Degree Days  
Heating Degree Days 25    
Month to date heating degree days 44  
Since 1 July heating degree days 1463  
Moisture  
Dew Point 16 °F    
Average Humidity 40    
Maximum Humidity 58    
Minimum Humidity 22    
Precipitation  
Precipitation 0.00 in - 0.34 in (2015)
Month to date precipitation 0.00  
Year to date precipitation 0.00  
Sea Level Pressure  
Sea Level Pressure 30.26 in    
Wind  
Wind Speed 5 mph (WNW)    
Max Wind Speed 10 mph    
Max Gust Speed 13 mph    
Visibility 10 miles    
Events      
T = Trace of Precipitation, MM = Missing Value Source: NWS Daily Summary

Daily Weather History Graph

Daily Weather History Graph

Search for Another Location

Airport or City:

Trip Planner

Search our weather history database for the weather conditions in past years. The results will help you decide how hot, cold, wet, or windy it might be!

Date:

Astronomy

Jan. 02, 2014 Rise Set
Actual Time 7:12 AM MST 5:13 PM MST
Civil Twilight 6:45 AM MST 5:41 PM MST
Nautical Twilight 6:14 AM MST 6:11 PM MST
Astronomical Twilight 5:44 AM MST 6:42 PM MST
Moon 8:02 AM MST (1/2) 7:07 PM MST (1/2)
Length of Visible Light 10h 55m
Length of Day
10h 00m
Waxing Crescent, 3% of the Moon is Illuminated
Jan 2
Waxing Crescent
Jan 7
First Quarter
Jan 15
Full
Jan 23
Last Quarter
Jan 30
New

Hourly Weather History & Observations

Time (MST) Temp. Windchill Dew Point Humidity Pressure Visibility Wind Dir Wind Speed Gust Speed Precip Events Conditions
12:53 AM 35.1 °F - 15.1 °F 44% 30.20 in 10.0 mi Calm Calm - N/A   Clear
1:53 AM 34.0 °F 28.0 °F 12.0 °F 40% 30.22 in 10.0 mi North 6.9 mph - N/A   Clear
2:53 AM 35.1 °F 30.1 °F 12.9 °F 40% 30.22 in 10.0 mi North 5.8 mph - N/A   Clear
3:53 AM 32.0 °F 26.4 °F 12.9 °F 45% 30.25 in 10.0 mi NW 5.8 mph - N/A   Clear
4:53 AM 30.0 °F 22.4 °F 12.9 °F 49% 30.27 in 10.0 mi NW 8.1 mph - N/A   Clear
5:53 AM 28.0 °F 19.3 °F 12.9 °F 53% 30.30 in 10.0 mi NW 9.2 mph - N/A   Clear
6:53 AM 27.0 °F 19.5 °F 12.0 °F 53% 30.33 in 10.0 mi NW 6.9 mph - N/A   Clear
7:53 AM 28.9 °F 23.9 °F 12.9 °F 51% 30.35 in 10.0 mi WNW 4.6 mph - N/A   Clear
8:53 AM 37.0 °F - 15.1 °F 41% 30.35 in 10.0 mi Calm Calm - N/A   Clear
9:53 AM 42.1 °F 39.2 °F 17.1 °F 37% 30.35 in 10.0 mi Variable 4.6 mph - N/A   Clear
10:53 AM 45.0 °F - 19.0 °F 36% 30.32 in 10.0 mi Calm Calm - N/A   Clear
11:53 AM 48.0 °F - 21.0 °F 34% 30.30 in 10.0 mi Variable 4.6 mph - N/A   Clear
12:53 PM 48.0 °F - 19.0 °F 32% 30.26 in 10.0 mi Variable 3.5 mph - N/A   Clear
1:53 PM 51.1 °F - 19.0 °F 28% 30.22 in 10.0 mi East 4.6 mph - N/A   Clear
2:53 PM 52.0 °F - 15.1 °F 23% 30.20 in 10.0 mi SSW 4.6 mph - N/A   Clear
3:53 PM 53.1 °F - 16.0 °F 23% 30.20 in 10.0 mi SSE 5.8 mph - N/A   Clear
4:53 PM 51.1 °F - 18.0 °F 27% 30.20 in 10.0 mi South 4.6 mph - N/A   Clear
5:53 PM 46.0 °F - 17.1 °F 31% 30.23 in 10.0 mi Calm Calm - N/A   Clear
6:53 PM 44.1 °F 42.5 °F 16.0 °F 32% 30.23 in 10.0 mi SSW 3.5 mph - N/A   Clear
7:53 PM 37.0 °F 31.6 °F 17.1 °F 44% 30.25 in 10.0 mi West 6.9 mph - N/A   Clear
8:53 PM 33.1 °F 27.7 °F 17.1 °F 52% 30.26 in 10.0 mi WNW 5.8 mph - N/A   Clear
9:53 PM 30.9 °F 25.2 °F 18.0 °F 59% 30.24 in 10.0 mi WNW 5.8 mph - N/A   Clear
10:53 PM 30.0 °F 23.2 °F 18.0 °F 61% 30.22 in 10.0 mi WNW 6.9 mph - N/A   Clear
11:53 PM 32.0 °F 24.2 °F 18.0 °F 56% 30.19 in 10.0 mi West 9.2 mph - N/A   Clear